When you browse on this site, cookies collect data to enhance your experience and personalize the content and advertising you see.
Visit our Privacy Policy to learn more. By continuing to use the site, you agree to this use of cookies and data.
  • Em Portugal
  • Lista de países
  • Para 7 dias
  • Temperatura da água
  • Mapas de satélite
  • Mapa do tempo
  • Widgets de tempo
  • user-avatar
    Iniciar Sessão

    Previsão horária em Mendoza

    Hoje, 25 Maio, Sábado

    Tempo Temperatura Precipitação Vento Pressão Humidade
    00:00 +12°C° 0 mm 1 m/s 696 mmHg 26%
    01:00 +13°C° 0 mm 1 m/s 695 mmHg 26%
    02:00 +13°C° 0 mm 2 m/s 695 mmHg 26%
    03:00 +13°C° 0 mm 2 m/s 695 mmHg 26%
    04:00 +12°C° 0 mm 2 m/s 695 mmHg 26%
    05:00 +12°C° 0 mm 2 m/s 695 mmHg 28%
    06:00 +12°C° 0 mm 2 m/s 695 mmHg 29%
    07:00 +12°C° 0 mm 1 m/s 695 mmHg 30%
    08:00 +14°C° 0 mm 1 m/s 695 mmHg 27%
    09:00 +16°C° 0 mm 1 m/s 695 mmHg 23%
    10:00 +19°C° 0 mm 1 m/s 695 mmHg 20%
    11:00 +19°C° 0 mm 2 m/s 695 mmHg 18%
    12:00 +20°C° 0 mm 2 m/s 695 mmHg 17%
    13:00 +21°C° 0 mm 2 m/s 694 mmHg 15%
    14:00 +20°C° 0 mm 2 m/s 694 mmHg 16%
    15:00 +20°C° 0 mm 2 m/s 694 mmHg 18%
    16:00 +19°C° 0 mm 2 m/s 694 mmHg 19%
    17:00 +19°C° 0 mm 1 m/s 694 mmHg 21%
    18:00 +16°C° 0 mm 1 m/s 694 mmHg 24%
    19:00 +15°C° 0 mm 1 m/s 694 mmHg 26%
    20:00 +15°C° 0 mm 1 m/s 695 mmHg 26%
    21:00 +14°C° 0 mm 2 m/s 695 mmHg 26%
    22:00 +14°C° 0 mm 2 m/s 695 mmHg 25%
    23:00 +14°C° 0 mm 2 m/s 695 mmHg 26%

    Amanhã, 26 Maio, Domingo

    Tempo Temperatura Precipitação Vento Pressão Humidade
    00:00 +13°C° 0 mm 2 m/s 695 mmHg 26%
    01:00 +13°C° 0 mm 2 m/s 695 mmHg 27%
    02:00 +12°C° 0 mm 2 m/s 695 mmHg 27%
    03:00 +12°C° 0 mm 2 m/s 695 mmHg 27%
    04:00 +12°C° 0 mm 2 m/s 695 mmHg 28%
    05:00 +11°C° 0 mm 3 m/s 695 mmHg 28%
    06:00 +11°C° 0 mm 3 m/s 696 mmHg 28%
    07:00 +11°C° 0 mm 3 m/s 696 mmHg 29%
    08:00 +13°C° 0 mm 3 m/s 696 mmHg 26%
    09:00 +16°C° 0 mm 3 m/s 697 mmHg 24%
    10:00 +18°C° 0 mm 4 m/s 697 mmHg 22%
    11:00 +18°C° 0 mm 4 m/s 697 mmHg 22%
    12:00 +19°C° 0 mm 5 m/s 697 mmHg 22%
    13:00 +20°C° 0 mm 5 m/s 697 mmHg 22%
    14:00 +19°C° 0 mm 5 m/s 697 mmHg 23%
    15:00 +18°C° 0 mm 4 m/s 697 mmHg 24%
    16:00 +18°C° 0 mm 4 m/s 697 mmHg 26%
    17:00 +16°C° 0 mm 3 m/s 697 mmHg 29%
    18:00 +14°C° 0 mm 3 m/s 698 mmHg 32%
    19:00 +14°C° 0 mm 2 m/s 698 mmHg 35%
    20:00 +13°C° 0 mm 2 m/s 698 mmHg 36%
    21:00 +12°C° 0 mm 2 m/s 698 mmHg 37%
    22:00 +12°C° 0 mm 2 m/s 699 mmHg 37%
    23:00 +10°C° 0 mm 2 m/s 698 mmHg 37%

    Depois de amanhã, 27 Maio, Segunda-feira

    Tempo Temperatura Precipitação Vento Pressão Humidade
    00:00 +10°C° 0 mm 2 m/s 698 mmHg 37%
    01:00 +10°C° 0 mm 2 m/s 698 mmHg 36%
    02:00 +9°C° 0 mm 2 m/s 698 mmHg 36%
    03:00 +9°C° 0 mm 2 m/s 698 mmHg 37%
    04:00 +8°C° 0 mm 2 m/s 697 mmHg 37%
    05:00 +8°C° 0 mm 2 m/s 697 mmHg 37%
    06:00 +9°C° 0 mm 1 m/s 698 mmHg 37%
    07:00 +9°C° 0 mm 1 m/s 698 mmHg 38%
    08:00 +11°C° 0 mm 1 m/s 698 mmHg 34%
    09:00 +13°C° 0 mm 1 m/s 698 mmHg 31%
    10:00 +15°C° 0 mm 1 m/s 698 mmHg 28%
    11:00 +15°C° 0 mm 2 m/s 697 mmHg 27%
    12:00 +16°C° 0 mm 2 m/s 696 mmHg 26%
    13:00 +17°C° 0 mm 2 m/s 696 mmHg 25%
    14:00 +16°C° 0 mm 2 m/s 696 mmHg 27%
    15:00 +16°C° 0 mm 2 m/s 696 mmHg 28%
    16:00 +16°C° 0 mm 1 m/s 695 mmHg 30%
    17:00 +14°C° 0 mm 1 m/s 696 mmHg 33%
    18:00 +13°C° 0 mm 1 m/s 696 mmHg 37%
    19:00 +11°C° 0 mm 0 m/s 696 mmHg 40%
    20:00 +10°C° 0 mm 0 m/s 696 mmHg 40%
    21:00 +11°C° 0 mm 1 m/s 696 mmHg 40%
    22:00 +11°C° 0 mm 1 m/s 696 mmHg 39%
    23:00 +11°C° 0 mm 1 m/s 696 mmHg 40%

    28 Maio, Terça-feira

    Tempo Temperatura Precipitação Vento Pressão Humidade
    00:00 +10°C° 0 mm 2 m/s 696 mmHg 40%
    01:00 +9°C° 0 mm 2 m/s 696 mmHg 40%
    02:00 +9°C° 0 mm 2 m/s 696 mmHg 41%
    03:00 +9°C° 0 mm 2 m/s 696 mmHg 42%
    04:00 +8°C° 0 mm 2 m/s 696 mmHg 43%
    05:00 +8°C° 0 mm 2 m/s 696 mmHg 43%
    06:00 +8°C° 0 mm 2 m/s 696 mmHg 43%
    07:00 +9°C° 0 mm 2 m/s 696 mmHg 44%
    08:00 +10°C° 0 mm 2 m/s 697 mmHg 40%
    09:00 +13°C° 0 mm 2 m/s 697 mmHg 37%
    10:00 +15°C° 0 mm 2 m/s 698 mmHg 33%
    11:00 +16°C° 0 mm 2 m/s 697 mmHg 32%
    12:00 +17°C° 0 mm 2 m/s 697 mmHg 31%
    13:00 +17°C° 0 mm 2 m/s 697 mmHg 29%
    14:00 +17°C° 0 mm 2 m/s 697 mmHg 30%
    15:00 +17°C° 0 mm 2 m/s 696 mmHg 31%
    16:00 +16°C° 0 mm 2 m/s 696 mmHg 32%
    17:00 +15°C° 0 mm 2 m/s 696 mmHg 35%
    18:00 +14°C° 0 mm 2 m/s 696 mmHg 37%
    19:00 +13°C° 0 mm 2 m/s 697 mmHg 40%
    20:00 +13°C° 0 mm 2 m/s 696 mmHg 41%
    21:00 +13°C° 0 mm 2 m/s 696 mmHg 43%
    22:00 +12°C° 0 mm 2 m/s 696 mmHg 45%
    23:00 +11°C° 0 mm 3 m/s 696 mmHg 47%

    29 Maio, Quarta-feira

    Tempo Temperatura Precipitação Vento Pressão Humidade
    00:00 +10°C° 0 mm 3 m/s 695 mmHg 49%
    01:00 +10°C° 0 mm 3 m/s 695 mmHg 51%
    02:00 +10°C° 0.1 mm 3 m/s 695 mmHg 53%
    03:00 +10°C° 0.1 mm 3 m/s 694 mmHg 55%
    04:00 +8°C° 0.1 mm 4 m/s 694 mmHg 57%
    05:00 +9°C° 0 mm 3 m/s 694 mmHg 59%
    06:00 +9°C° 0 mm 3 m/s 695 mmHg 60%
    07:00 +9°C° 0 mm 3 m/s 695 mmHg 62%
    08:00 +10°C° 0 mm 3 m/s 695 mmHg 59%
    09:00 +12°C° 0 mm 2 m/s 695 mmHg 57%
    10:00 +13°C° 0 mm 2 m/s 695 mmHg 55%
    11:00 +13°C° 0 mm 2 m/s 695 mmHg 53%
    12:00 +14°C° 0 mm 2 m/s 694 mmHg 52%
    13:00 +15°C° 0 mm 2 m/s 694 mmHg 50%
    14:00 +15°C° 0 mm 2 m/s 694 mmHg 51%
    15:00 +15°C° 0 mm 2 m/s 694 mmHg 52%
    16:00 +14°C° 0 mm 1 m/s 694 mmHg 53%
    17:00 +14°C° 0.1 mm 1 m/s 694 mmHg 57%
    18:00 +13°C° 0.1 mm 2 m/s 695 mmHg 60%
    19:00 +13°C° 0.1 mm 2 m/s 695 mmHg 63%
    20:00 +12°C° 0.1 mm 2 m/s 695 mmHg 66%
    21:00 +12°C° 0.1 mm 2 m/s 696 mmHg 69%
    22:00 +12°C° 0.1 mm 2 m/s 696 mmHg 72%
    23:00 +10°C° 0 mm 2 m/s 696 mmHg 76%

    30 Maio, Quinta-feira

    Tempo Temperatura Precipitação Vento Pressão Humidade
    00:00 +10°C° 0 mm 2 m/s 696 mmHg 81%
    01:00 +9°C° 0 mm 2 m/s 695 mmHg 85%
    02:00 +9°C° 0 mm 2 m/s 696 mmHg 84%
    03:00 +9°C° 0 mm 2 m/s 696 mmHg 83%
    04:00 +8°C° 0 mm 2 m/s 696 mmHg 82%
    05:00 +8°C° 0 mm 2 m/s 696 mmHg 79%
    06:00 +9°C° 0 mm 1 m/s 697 mmHg 76%
    07:00 +9°C° 0 mm 1 m/s 697 mmHg 74%
    08:00 +10°C° 0 mm 2 m/s 697 mmHg 70%
    09:00 +12°C° 0 mm 2 m/s 697 mmHg 67%
    10:00 +13°C° 0 mm 2 m/s 697 mmHg 64%
    11:00 +14°C° 0 mm 2 m/s 696 mmHg 62%
    12:00 +15°C° 0 mm 2 m/s 696 mmHg 60%
    13:00 +14°C° 0 mm 3 m/s 695 mmHg 59%
    14:00 +15°C° 0 mm 2 m/s 695 mmHg 62%
    15:00 +15°C° 0 mm 2 m/s 695 mmHg 65%
    16:00 +14°C° 0 mm 2 m/s 695 mmHg 68%
    17:00 +14°C° 0 mm 2 m/s 696 mmHg 72%
    18:00 +13°C° 0 mm 2 m/s 696 mmHg 76%
    19:00 +13°C° 0 mm 1 m/s 696 mmHg 81%
    20:00 +12°C° 0 mm 1 m/s 696 mmHg 82%
    21:00 +12°C° 0 mm 1 m/s 696 mmHg 83%
    22:00 +12°C° 0 mm 1 m/s 696 mmHg 85%
    23:00 +11°C° 0 mm 1 m/s 696 mmHg 85%
    Mostrar mais